SWA214 KMEM-KMYR

Flight info

Callsign SWA214
Flight time 1h 16m
Altitude 35000
Route AZONE7 PITEW JALAR BBABE DAREE UNJAM
Aircraft B738/M-SDE2E3FGHIRWXY/LB1

Departure

Time 2026-05-04 02:46
Airport Memphis International Airport (KMEM)

Arrival

Time 2026-05-04 04:03
Airport Myrtle Beach International Airport (KMYR)
Time Latitude Longitude Altitude Speed Heading
2026-05-04 02:28 35.04077 -89.98287 310 ft 0 kts 295°
2026-05-04 02:37 35.04075 -89.98282 310 ft 2 kts 294°
2026-05-04 02:38 35.04068 -89.98263 310 ft 2 kts 294°
2026-05-04 02:38 35.04061 -89.98245 311 ft 2 kts 289°
2026-05-04 02:38 35.04059 -89.98225 311 ft 2 kts 237°
2026-05-04 02:38 35.04061 -89.98222 311 ft 0 kts 233°
2026-05-04 02:42 35.04049 -89.98241 310 ft 11 kts 233°
2026-05-04 02:42 35.03992 -89.98339 310 ft 16 kts 236°
2026-05-04 02:42 35.04008 -89.98476 308 ft 19 kts 324°
2026-05-04 02:42 35.04141 -89.98497 305 ft 21 kts 360°
2026-05-04 02:43 35.04295 -89.98498 305 ft 23 kts
2026-05-04 02:43 35.04452 -89.98505 302 ft 24 kts 358°
2026-05-04 02:43 35.04632 -89.98509 304 ft 28 kts 359°
2026-05-04 02:43 35.04827 -89.98526 305 ft 12 kts 332°
2026-05-04 02:44 35.04837 -89.98586 303 ft 8 kts 254°
2026-05-04 02:44 35.04827 -89.98625 306 ft 0 kts 261°
2026-05-04 02:45 35.04823 -89.98675 304 ft 12 kts 263°
2026-05-04 02:45 35.04751 -89.98742 303 ft 17 kts 175°
2026-05-04 02:46 35.04596 -89.98735 304 ft 60 kts 179°
2026-05-04 02:46 35.03566 -89.98714 321 ft 157 kts 180°
2026-05-04 02:46 35.02774 -89.98694 540 ft 179 kts 178°
2026-05-04 02:46 35.01539 -89.98618 1507 ft 174 kts 180°
2026-05-04 02:47 35.00347 -89.98575 2439 ft 179 kts 184°
2026-05-04 02:47 34.99011 -89.98510 2710 ft 207 kts 174°
2026-05-04 02:47 34.97585 -89.97827 2930 ft 232 kts 158°
2026-05-04 02:47 34.96124 -89.96861 3328 ft 245 kts 156°
2026-05-04 02:48 34.94581 -89.95773 3583 ft 267 kts 148°
2026-05-04 02:48 34.93342 -89.93999 4146 ft 286 kts 116°
2026-05-04 02:48 34.92845 -89.91642 4931 ft 291 kts 95°
2026-05-04 02:48 34.92732 -89.89177 5754 ft 291 kts 91°
2026-05-04 02:49 34.92645 -89.86714 6621 ft 290 kts 91°
2026-05-04 02:49 34.92700 -89.84269 7384 ft 289 kts 75°
2026-05-04 02:49 34.93462 -89.82030 8161 ft 286 kts 58°
2026-05-04 02:49 34.94481 -89.79948 8928 ft 287 kts 57°
2026-05-04 02:50 34.95514 -89.77851 9671 ft 290 kts 57°
2026-05-04 02:50 34.96536 -89.75725 10351 ft 294 kts 61°
2026-05-04 02:50 34.97149 -89.73249 10537 ft 318 kts 81°
2026-05-04 02:50 34.97435 -89.70484 10712 ft 340 kts 82°
2026-05-04 02:51 34.97707 -89.67531 10873 ft 360 kts 82°
2026-05-04 02:51 34.97994 -89.64415 11007 ft 379 kts 82°
2026-05-04 02:51 34.98303 -89.61150 11160 ft 396 kts 82°
2026-05-04 02:51 34.98632 -89.57774 11557 ft 404 kts 82°
2026-05-04 02:52 34.98971 -89.54368 12109 ft 407 kts 81°
2026-05-04 02:52 34.99316 -89.50925 12680 ft 409 kts 81°
2026-05-04 02:52 34.99666 -89.47465 13215 ft 413 kts 81°
2026-05-04 02:52 35.00020 -89.43967 13724 ft 418 kts 81°
2026-05-04 02:53 35.00376 -89.40434 14210 ft 421 kts 81°
2026-05-04 02:53 35.00734 -89.36877 14677 ft 425 kts 81°
2026-05-04 02:53 35.01093 -89.33287 15148 ft 428 kts 81°
2026-05-04 02:53 35.01455 -89.29667 15607 ft 432 kts 81°
2026-05-04 02:54 35.01818 -89.26020 16065 ft 435 kts 81°
2026-05-04 02:54 35.02183 -89.22343 16515 ft 438 kts 81°
2026-05-04 02:54 35.02503 -89.18626 16950 ft 443 kts 84°
2026-05-04 02:54 35.02562 -89.14846 17379 ft 448 kts 88°
2026-05-04 02:55 35.02486 -89.07248 18239 ft 454 kts 88°
2026-05-04 02:55 35.02457 -89.03382 18607 ft 458 kts 88°
2026-05-04 02:55 35.02437 -88.99484 18972 ft 461 kts 88°
2026-05-04 02:56 35.02423 -88.95563 19360 ft 463 kts 88°
2026-05-04 02:56 35.02410 -88.91622 19738 ft 466 kts 88°
2026-05-04 02:56 35.02397 -88.87659 20089 ft 469 kts 88°
2026-05-04 02:56 35.02383 -88.83663 20442 ft 472 kts 88°
2026-05-04 02:57 35.02366 -88.79645 20804 ft 475 kts 88°
2026-05-04 02:57 35.02347 -88.75604 21145 ft 478 kts 88°
2026-05-04 02:57 35.02327 -88.71542 21460 ft 481 kts 88°
2026-05-04 02:57 35.02305 -88.67453 21780 ft 484 kts 88°
2026-05-04 02:58 35.02281 -88.63342 22104 ft 486 kts 88°
2026-05-04 02:58 35.02256 -88.59209 22410 ft 489 kts 88°
2026-05-04 02:58 35.02229 -88.55055 22705 ft 491 kts 88°
2026-05-04 02:58 35.02201 -88.50875 23002 ft 494 kts 88°
2026-05-04 02:59 35.02171 -88.46675 23287 ft 496 kts 88°
2026-05-04 02:59 35.02139 -88.42452 23558 ft 499 kts 88°
2026-05-04 02:59 35.02106 -88.38207 23797 ft 501 kts 88°
2026-05-04 02:59 35.02072 -88.33950 24024 ft 503 kts 88°
2026-05-04 03:00 35.02035 -88.29669 24253 ft 506 kts 88°
2026-05-04 03:00 35.01997 -88.25373 24482 ft 508 kts 88°
2026-05-04 03:00 35.01957 -88.21057 24743 ft 508 kts 88°
2026-05-04 03:00 35.01916 -88.16757 25083 ft 507 kts 88°
2026-05-04 03:01 35.01873 -88.12456 25384 ft 507 kts 88°
2026-05-04 03:01 35.01828 -88.08160 25699 ft 507 kts 88°
2026-05-04 03:01 35.01783 -88.03863 26012 ft 506 kts 88°
2026-05-04 03:01 35.01735 -87.99574 26319 ft 506 kts 88°
2026-05-04 03:02 35.01687 -87.95283 26657 ft 505 kts 88°
2026-05-04 03:02 35.01637 -87.90996 26979 ft 505 kts 88°
2026-05-04 03:02 35.01585 -87.86715 27311 ft 505 kts 88°
2026-05-04 03:02 35.01533 -87.82498 27639 ft 504 kts 88°
2026-05-04 03:03 35.01479 -87.78229 27981 ft 504 kts 88°
2026-05-04 03:03 35.01423 -87.73952 28320 ft 503 kts 88°
2026-05-04 03:03 35.01366 -87.69689 28676 ft 502 kts 88°
2026-05-04 03:03 35.01308 -87.65436 29028 ft 502 kts 88°
2026-05-04 03:04 35.01248 -87.61182 29383 ft 501 kts 88°
2026-05-04 03:04 35.01179 -87.56940 29739 ft 500 kts 89°
2026-05-04 03:04 35.00908 -87.52702 30092 ft 501 kts 93°
2026-05-04 03:04 35.00492 -87.48485 30421 ft 501 kts 95°
2026-05-04 03:05 35.00020 -87.44285 30726 ft 500 kts 95°
2026-05-04 03:05 34.99534 -87.40094 31042 ft 498 kts 95°
2026-05-04 03:05 34.99057 -87.35919 31355 ft 497 kts 95°
2026-05-04 03:05 34.98595 -87.31749 31677 ft 495 kts 94°
2026-05-04 03:06 34.98146 -87.27595 32003 ft 494 kts 94°
2026-05-04 03:06 34.97706 -87.23452 32331 ft 492 kts 94°
2026-05-04 03:06 34.97272 -87.19326 32665 ft 490 kts 94°
2026-05-04 03:06 34.96839 -87.15215 32998 ft 488 kts 94°
2026-05-04 03:07 34.96408 -87.11125 33340 ft 485 kts 94°
2026-05-04 03:07 34.95977 -87.07056 33678 ft 483 kts 94°
2026-05-04 03:07 34.95546 -87.03013 34024 ft 480 kts 93°
2026-05-04 03:07 34.95115 -86.98986 34337 ft 478 kts 94°
2026-05-04 03:08 34.94683 -86.94960 34447 ft 481 kts 94°
2026-05-04 03:08 34.93807 -86.86802 34515 ft 489 kts 94°
2026-05-04 03:08 34.93361 -86.82683 34633 ft 491 kts 94°
2026-05-04 03:09 34.92912 -86.78555 34765 ft 493 kts 94°
2026-05-04 03:09 34.92459 -86.74413 34893 ft 494 kts 94°
2026-05-04 03:09 34.92004 -86.70259 35008 ft 496 kts 94°
2026-05-04 03:10 34.91083 -86.61890 35036 ft 501 kts 94°
2026-05-04 03:10 34.90146 -86.53424 35052 ft 506 kts 94°
2026-05-04 03:11 34.89195 -86.44900 35050 ft 509 kts 94°
2026-05-04 03:11 34.88234 -86.36338 35044 ft 511 kts 95°
2026-05-04 03:12 34.87267 -86.27782 35020 ft 508 kts 95°
2026-05-04 03:12 34.86311 -86.19391 35007 ft 501 kts 95°
2026-05-04 03:13 34.85352 -86.10996 35003 ft 501 kts 95°
2026-05-04 03:13 34.84387 -86.02598 35007 ft 501 kts 95°
2026-05-04 03:14 34.83416 -85.94202 35025 ft 501 kts 95°
2026-05-04 03:14 34.82438 -85.85807 35023 ft 501 kts 95°
2026-05-04 03:15 34.81452 -85.77392 35025 ft 502 kts 95°
2026-05-04 03:15 34.80461 -85.68981 35018 ft 503 kts 95°
2026-05-04 03:16 34.79462 -85.60554 35025 ft 503 kts 95°
2026-05-04 03:16 34.78530 -85.52122 35019 ft 503 kts 93°
2026-05-04 03:17 34.77799 -85.43673 35026 ft 502 kts 93°
2026-05-04 03:17 34.77085 -85.35224 35026 ft 502 kts 93°
2026-05-04 03:18 34.76336 -85.26774 35025 ft 502 kts 93°
2026-05-04 03:18 34.75564 -85.18334 35017 ft 502 kts 94°
2026-05-04 03:19 34.74782 -85.09892 35029 ft 502 kts 94°
2026-05-04 03:19 34.73997 -85.01466 35041 ft 502 kts 94°
2026-05-04 03:20 34.73207 -84.93039 35039 ft 501 kts 94°
2026-05-04 03:20 34.72418 -84.84682 35049 ft 501 kts 94°
2026-05-04 03:21 34.71614 -84.76222 35045 ft 501 kts 94°
2026-05-04 03:21 34.70814 -84.67874 35043 ft 500 kts 94°
2026-05-04 03:22 34.70003 -84.59470 35015 ft 501 kts 94°
2026-05-04 03:22 34.69186 -84.51070 35032 ft 500 kts 95°
2026-05-04 03:23 34.68365 -84.42679 35015 ft 501 kts 95°
2026-05-04 03:23 34.67537 -84.34283 35027 ft 501 kts 95°
2026-05-04 03:24 34.66703 -84.25887 35040 ft 501 kts 95°
2026-05-04 03:24 34.65862 -84.17485 35039 ft 501 kts 95°
2026-05-04 03:25 34.65016 -84.09086 35051 ft 501 kts 95°
2026-05-04 03:25 34.64164 -84.00679 35037 ft 501 kts 95°
2026-05-04 03:26 34.63307 -83.92286 35035 ft 501 kts 95°
2026-05-04 03:26 34.62436 -83.83896 35039 ft 501 kts 96°
2026-05-04 03:27 34.61434 -83.75525 35043 ft 501 kts 97°
2026-05-04 03:27 34.60378 -83.67170 35033 ft 501 kts 97°
2026-05-04 03:28 34.59329 -83.58811 35026 ft 501 kts 97°
2026-05-04 03:28 34.58290 -83.50463 35047 ft 500 kts 97°
2026-05-04 03:29 34.57249 -83.42108 35042 ft 501 kts 98°
2026-05-04 03:29 34.56203 -83.33761 35055 ft 500 kts 98°
2026-05-04 03:30 34.55151 -83.25421 35054 ft 500 kts 98°
2026-05-04 03:30 34.54094 -83.17087 35047 ft 500 kts 98°
2026-05-04 03:31 34.53031 -83.08759 35040 ft 500 kts 98°
2026-05-04 03:31 34.51963 -83.00433 35008 ft 500 kts 98°
2026-05-04 03:32 34.50897 -82.92167 35012 ft 500 kts 98°
2026-05-04 03:32 34.49811 -82.83795 35018 ft 499 kts 98°
2026-05-04 03:33 34.48733 -82.75532 35014 ft 499 kts 99°
2026-05-04 03:33 34.47643 -82.67221 35015 ft 499 kts 99°
2026-05-04 03:34 34.46548 -82.58916 35015 ft 499 kts 99°
2026-05-04 03:34 34.45449 -82.50619 35016 ft 499 kts 99°
2026-05-04 03:35 34.44523 -82.43669 35011 ft 499 kts 99°
2026-05-04 03:35 34.43412 -82.35374 35021 ft 498 kts 99°
2026-05-04 03:36 34.42298 -82.27092 35028 ft 498 kts 99°
2026-05-04 03:36 34.41187 -82.18878 35029 ft 497 kts 100°
2026-05-04 03:37 34.40063 -82.10615 35035 ft 497 kts 100°
2026-05-04 03:37 34.38935 -82.02361 35026 ft 497 kts 100°
2026-05-04 03:38 34.37802 -81.94114 35025 ft 496 kts 100°
2026-05-04 03:38 34.36665 -81.85883 35033 ft 496 kts 100°
2026-05-04 03:39 34.35523 -81.77657 35041 ft 496 kts 100°
2026-05-04 03:39 34.34377 -81.69445 35058 ft 495 kts 101°
2026-05-04 03:40 34.33226 -81.61234 35051 ft 495 kts 101°
2026-05-04 03:40 34.32070 -81.53030 35050 ft 495 kts 101°
2026-05-04 03:41 34.30909 -81.44833 35051 ft 494 kts 101°
2026-05-04 03:41 34.29743 -81.36639 35018 ft 494 kts 101°
2026-05-04 03:42 34.28572 -81.28452 35031 ft 495 kts 101°
2026-05-04 03:42 34.27394 -81.20258 35040 ft 495 kts 102°
2026-05-04 03:43 34.26205 -81.12032 34917 ft 500 kts 102°
2026-05-04 03:43 34.25604 -81.07884 34801 ft 500 kts 102°
2026-05-04 03:43 34.25001 -81.03740 34422 ft 502 kts 102°
2026-05-04 03:43 34.24395 -80.99575 33872 ft 501 kts 102°
2026-05-04 03:44 34.23792 -80.95443 33197 ft 498 kts 101°
2026-05-04 03:44 34.23190 -80.91327 32530 ft 495 kts 101°
2026-05-04 03:44 34.22592 -80.87245 31858 ft 493 kts 101°
2026-05-04 03:44 34.21993 -80.83169 31216 ft 491 kts 101°
2026-05-04 03:45 34.21390 -80.79111 30585 ft 491 kts 102°
2026-05-04 03:45 34.20712 -80.75054 29919 ft 494 kts 103°
2026-05-04 03:45 34.19969 -80.70983 29141 ft 499 kts 104°
2026-05-04 03:45 34.19193 -80.66876 28386 ft 503 kts 104°
2026-05-04 03:46 34.18410 -80.62753 27654 ft 504 kts 104°
2026-05-04 03:46 34.17631 -80.58617 26938 ft 506 kts 104°
2026-05-04 03:46 34.16857 -80.54472 26241 ft 506 kts 104°
2026-05-04 03:46 34.16089 -80.50324 25556 ft 507 kts 104°
2026-05-04 03:47 34.15324 -80.46174 24886 ft 506 kts 104°
2026-05-04 03:47 34.14571 -80.42083 24250 ft 504 kts 103°
2026-05-04 03:47 34.13815 -80.37981 23604 ft 498 kts 103°
2026-05-04 03:47 34.13067 -80.33932 22880 ft 491 kts 103°
2026-05-04 03:48 34.12327 -80.29931 22168 ft 486 kts 103°
2026-05-04 03:48 34.11591 -80.25970 21472 ft 483 kts 103°
2026-05-04 03:48 34.10858 -80.22036 20792 ft 479 kts 103°
2026-05-04 03:48 34.10130 -80.18133 20122 ft 474 kts 103°
2026-05-04 03:49 34.09409 -80.14274 19476 ft 470 kts 103°
2026-05-04 03:49 34.08692 -80.10447 18836 ft 466 kts 103°
2026-05-04 03:49 34.07980 -80.06655 18177 ft 461 kts 103°
2026-05-04 03:49 34.07273 -80.02894 17463 ft 457 kts 103°
2026-05-04 03:50 34.06572 -79.99173 16769 ft 453 kts 103°
2026-05-04 03:50 34.05876 -79.95482 16089 ft 449 kts 103°
2026-05-04 03:50 34.05185 -79.91826 15430 ft 445 kts 103°
2026-05-04 03:50 34.04500 -79.88207 14787 ft 441 kts 103°
2026-05-04 03:51 34.03824 -79.84643 14519 ft 428 kts 103°
2026-05-04 03:51 34.03171 -79.81205 14174 ft 417 kts 103°
2026-05-04 03:51 34.02523 -79.77800 13456 ft 417 kts 102°
2026-05-04 03:51 34.01875 -79.74395 12802 ft 415 kts 102°
2026-05-04 03:52 34.01232 -79.71029 12281 ft 409 kts 102°
2026-05-04 03:52 34.00597 -79.67706 11765 ft 404 kts 102°
2026-05-04 03:52 33.99972 -79.64441 11300 ft 398 kts 102°
2026-05-04 03:52 33.99351 -79.61201 10791 ft 394 kts 102°
2026-05-04 03:53 33.98738 -79.58009 10348 ft 388 kts 102°
2026-05-04 03:53 33.98132 -79.54858 9876 ft 384 kts 102°
2026-05-04 03:53 33.97533 -79.51749 9384 ft 379 kts 102°
2026-05-04 03:53 33.96941 -79.48677 8891 ft 375 kts 102°
2026-05-04 03:54 33.96354 -79.45636 8413 ft 370 kts 102°
2026-05-04 03:54 33.95774 -79.42631 7935 ft 366 kts 102°
2026-05-04 03:54 33.95199 -79.39659 7465 ft 363 kts 102°
2026-05-04 03:54 33.94628 -79.36715 7011 ft 359 kts 102°
2026-05-04 03:55 33.94063 -79.33802 6550 ft 356 kts 103°
2026-05-04 03:55 33.93501 -79.30914 6063 ft 353 kts 103°
2026-05-04 03:55 33.92945 -79.28050 5584 ft 350 kts 103°
2026-05-04 03:55 33.92392 -79.25213 5103 ft 347 kts 104°
2026-05-04 03:56 33.91841 -79.22393 4621 ft 345 kts 104°
2026-05-04 03:56 33.91295 -79.19598 4141 ft 342 kts 104°
2026-05-04 03:56 33.90751 -79.16818 3663 ft 340 kts 104°
2026-05-04 03:56 33.90211 -79.14061 3185 ft 337 kts 104°
2026-05-04 03:57 33.89675 -79.11327 2711 ft 335 kts 104°
2026-05-04 03:57 33.89141 -79.08608 2236 ft 332 kts 105°
2026-05-04 03:57 33.88623 -79.05961 2011 ft 315 kts 105°
2026-05-04 03:57 33.88140 -79.03495 2009 ft 291 kts 106°
2026-05-04 03:58 33.87264 -78.99197 1971 ft 239 kts 115°
2026-05-04 03:58 33.86334 -78.97744 1995 ft 206 kts 149°
2026-05-04 03:58 33.85122 -78.97095 1985 ft 179 kts 168°
2026-05-04 03:59 33.83989 -78.96796 2021 ft 161 kts 172°
2026-05-04 03:59 33.82918 -78.96539 1995 ft 154 kts 172°
2026-05-04 03:59 33.81852 -78.96282 1936 ft 159 kts 172°
2026-05-04 03:59 33.80763 -78.96017 1898 ft 161 kts 171°
2026-05-04 04:00 33.79666 -78.95746 1828 ft 160 kts 171°
2026-05-04 04:00 33.78594 -78.95480 1758 ft 154 kts 171°
2026-05-04 04:00 33.77556 -78.95203 1666 ft 152 kts 169°
2026-05-04 04:00 33.76520 -78.94930 1561 ft 153 kts 171°
2026-05-04 04:01 33.75481 -78.94672 1456 ft 153 kts 171°
2026-05-04 04:01 33.74457 -78.94410 1288 ft 147 kts 171°
2026-05-04 04:01 33.73485 -78.94160 1021 ft 140 kts 172°
2026-05-04 04:01 33.72535 -78.93938 751 ft 141 kts 171°
2026-05-04 04:02 33.71554 -78.93711 535 ft 145 kts 171°
2026-05-04 04:02 33.70535 -78.93455 370 ft 151 kts 172°
2026-05-04 04:02 33.69512 -78.93203 146 ft 148 kts 170°
2026-05-04 04:02 33.68542 -78.92975 30 ft 127 kts 169°
2026-05-04 04:03 33.68000 -78.92843 30 ft 46 kts 168°
2026-05-04 04:03 33.67713 -78.92768 30 ft 37 kts 166°